Jackson, MS

3:33 AM CST on February 20, 2017 (GMT -0600)
Hawkins

Weather History for KHKS - November, 2012

Change the Weather History Date:

Thursday, November 1, 2012

  Actual Average (KJAN) Record (KJAN)
Temperature  
Mean Temperature 60 °F -  
Max Temperature 75 °F 74 °F 89 °F (1927)
Min Temperature 46 °F 49 °F 24 °F (1993)
Degree Days  
Heating Degree Days 4    
Growing Degree Days 10 (Base 50)    
Moisture  
Dew Point 46 °F    
Average Humidity 69    
Maximum Humidity 93    
Minimum Humidity 33    
Precipitation  
Precipitation 0.00 in - - ()
Sea Level Pressure  
Sea Level Pressure 30.02 in    
Wind  
Wind Speed 1 mph (WNW)    
Max Wind Speed 6 mph    
Max Gust Speed -    
Visibility 8 miles    
Events      
Averages and records for this station are not official NWS values.
T = Trace of Precipitation, MM = Missing Value Source: NWS Daily Summary

Daily Weather History Graph

Daily Weather History Graph

Search for Another Location

Airport or City:

Trip Planner

Search our weather history database for the weather conditions in past years. The results will help you decide how hot, cold, wet, or windy it might be!

Date:

Astronomy

Nov. 01, 2012 Rise Set
Actual Time 7:18 AM CDT 6:10 PM CDT
Civil Twilight 6:53 AM CDT 6:35 PM CDT
Nautical Twilight 6:23 AM CDT 7:04 PM CDT
Astronomical Twilight 5:55 AM CDT 7:33 PM CDT
Moon 8:14 PM CDT (11/1) 9:44 AM CDT (11/1)
Length of Visible Light 11h 42m
Length of Day
10h 51m
Waning Gibbous, 93% of the Moon is Illuminated
Nov 1
Waning Gibbous
Nov 6
Last Quarter
Nov 13
New
Nov 20
First Quarter
Nov 28
Full

Hourly Weather History & Observations

Time (CDT) Temp. Dew Point Humidity Pressure Visibility Wind Dir Wind Speed Gust Speed Precip Events Conditions
12:53 AM 51.1 °F 48.0 °F 89% 29.99 in 10.0 mi Calm Calm - N/A   Clear
1:53 AM 48.9 °F 46.9 °F 93% 30.00 in 8.0 mi Calm Calm - N/A   Clear
2:53 AM 48.9 °F 46.9 °F 93% 29.99 in 7.0 mi Calm Calm - N/A   Clear
3:53 AM 46.9 °F 45.0 °F 93% 30.00 in 6.0 mi Calm Calm - N/A   Clear
4:53 AM 46.9 °F 45.0 °F 93% 30.01 in 7.0 mi Calm Calm - N/A   Clear
5:45 AM 46.4 °F 44.6 °F 93% 30.03 in 1.8 mi Calm Calm - N/A   Clear
5:53 AM 46.0 °F 44.1 °F 93% 30.02 in 2.0 mi Calm Calm - N/A   Clear
6:01 AM 46.4 °F 44.6 °F 93% 30.04 in 6.0 mi Calm Calm - N/A   Clear
7:53 AM 46.0 °F 44.1 °F 93% 30.05 in 5.0 mi Calm Calm - N/A   Clear
8:53 AM 53.1 °F 48.9 °F 86% 30.07 in 8.0 mi Calm Calm - N/A   Clear
9:53 AM 62.1 °F 46.9 °F 58% 30.08 in - Calm Calm - N/A   Clear
10:53 AM 68.0 °F 43.0 °F 40% 30.08 in - Calm Calm - N/A   Unknown
11:53 AM 71.1 °F 41.0 °F 34% 30.07 in - North - - N/A   Unknown
12:53 PM 71.1 °F 42.1 °F 35% 30.04 in 10.0 mi Variable 3.5 mph - N/A   Clear
1:53 PM 73.0 °F 43.0 °F 34% 30.01 in 10.0 mi WNW 5.8 mph - N/A   Clear
2:53 PM 75.0 °F 44.1 °F 33% 29.99 in 10.0 mi Variable 4.6 mph - N/A   Clear
3:53 PM 75.0 °F 44.1 °F 33% 29.99 in 10.0 mi NW 5.8 mph - N/A   Clear
4:53 PM 73.9 °F 45.0 °F 35% 29.98 in 10.0 mi WNW 4.6 mph - N/A   Clear
5:53 PM 72.0 °F 46.0 °F 40% 29.98 in 10.0 mi Calm Calm - N/A   Clear
6:53 PM 63.0 °F 50.0 °F 63% 29.99 in 10.0 mi Calm Calm - N/A   Clear
7:53 PM 60.1 °F 50.0 °F 69% 29.99 in 10.0 mi Calm Calm - N/A   Clear
8:53 PM 57.0 °F 50.0 °F 77% 30.00 in 10.0 mi Calm Calm - N/A   Clear
9:53 PM 55.0 °F 48.9 °F 80% 30.01 in 10.0 mi Calm Calm - N/A   Clear
10:53 PM 54.0 °F 48.9 °F 83% 30.00 in 10.0 mi Calm Calm - N/A   Clear
11:53 PM 53.1 °F 48.0 °F 83% 29.99 in 10.0 mi Calm Calm - N/A   Clear